Location: Bletchingley
(51.2333°N, 0.1000°W)
Time: 03:55:45
(UTC+00:00)

Landsat 7 - Pass Details

Date: 18 September 2020
Orbit: 701 x 703 km, 98.1° (Epoch: 19 October)

Event Time Altitude Azimuth Distance (km) Brightness Sun altitude
Exits shadow 21:04:39 80° 266° (W) 721 3.8 -26.3°
Drops below altitude 10° 21:09:24 10° 344° (NNW) 2,183 7.1 -26.8°
Sets 21:11:40 0° 345° (NNW) 3,106 8.0 -27.1°
